{"data":{"norad_id":55690,"intl_designator":"2023-025A","name":"HORUS 1","alt_names":[],"object_type":"PAYLOAD","status":"ACTIVE","operator":null,"country":"EGYP","launch_date":"2023-02-24","launch_site_code":"JSC","launch_vehicle":null,"mission":null,"orbit_class":"UNKNOWN","rcs_meters":null,"size_class":null,"mass_kg":null,"dimensions":null,"purposes":[],"wikipedia_slug":null,"has_3d_model":false,"image_url":null,"decayed_at":null,"tle_current":{"epoch":"2026-05-25T05:30:39.167136Z","epoch_age_seconds":54959,"freshness":"FRESH","line1":"1 55690U 23025A   26145.22961999  .00005571  00000+0  23763-3 0  9993","line2":"2 55690  97.3467 220.3054 0001369 137.6449 222.4894 15.23316136180553","mean_motion":15.23316136,"eccentricity":0.0001369,"inclination_deg":97.3467,"raan_deg":220.3054,"arg_perigee_deg":137.6449,"mean_anomaly_deg":222.4894,"bstar":0.00023763,"rev_number":18055,"period_min":94.5306076637,"perigee_km":494.9053621971,"apogee_km":496.7874588549,"semimajor_km":6873.983410526,"source":"CELESTRAK","updated_at":"2026-05-25T13:37:59.136382Z"}}}